Weather History for Glendive, MT

Change the Weather History Date:

Saturday, March 16, 2013

  Actual Average Record
Temperature  
Mean Temperature 17 °F -  
Max Temperature 19 °F 38 °F 77 °F (2012)
Min Temperature 15 °F 18 °F 15 °F (2013)
Degree Days  
Heating Degree Days 48    
Moisture  
Dew Point 11 °F    
Average Humidity 77    
Maximum Humidity 93    
Minimum Humidity 68    
Precipitation  
Precipitation 0.00 in - - ()
Sea Level Pressure  
Sea Level Pressure 30.06 in    
Wind  
Wind Speed 9 mph (NE)    
Max Wind Speed 17 mph    
Max Gust Speed 18 mph    
Visibility 8 miles    
Events      
Averages and records for this station are not official NWS values.
T = Trace of Precipitation, MM = Missing Value Source: NWS Daily Summary

Daily Weather History Graph

Daily Weather History Graph

Search for Another Location

Airport:

Trip Planner

Search our weather history database for the weather conditions in past years. The results will help you decide how hot, cold, wet, or windy it might be!

Date:

Astronomy

Mar. 16, 2013 Rise Set
Actual Time 7:09 AM MDT 7:06 PM MDT
Civil Twilight 6:39 AM MDT 7:37 PM MDT
Nautical Twilight 6:03 AM MDT 8:12 PM MDT
Astronomical Twilight 5:27 AM MDT 8:49 PM MDT
Moon 9:21 AM MDT (3/16) No Moon Set
Length of Visible Light 12h 57m
Length of Day
11h 57m
Waxing Crescent, 23% of the Moon is Illuminated
Mar 16
Waxing Crescent
Mar 19
First Quarter
Mar 27
Full
Apr 2
Last Quarter
Apr 10
New

Hourly Weather History & Observations

Time (MDT) Temp. Windchill Dew Point Humidity Pressure Visibility Wind Dir Wind Speed Gust Speed Precip Events Conditions
12:15 AM 19.4 °F 8.6 °F 12.2 °F 74% 30.14 in 10.0 mi NNE 9.2 mph - N/A   Overcast
12:35 AM 17.6 °F 7.3 °F 12.2 °F 79% 30.14 in 10.0 mi NNE 8.1 mph - N/A   Scattered Clouds
12:55 AM 17.6 °F 7.3 °F 12.2 °F 79% 30.14 in 10.0 mi North 8.1 mph - N/A   Mostly Cloudy
1:15 AM 17.6 °F 6.4 °F 10.4 °F 73% 30.15 in 10.0 mi NNW 9.2 mph - N/A   Mostly Cloudy
1:35 AM 17.6 °F 5.0 °F 10.4 °F 73% 30.14 in 10.0 mi North 11.5 mph - N/A   Mostly Cloudy
1:55 AM 17.6 °F 6.4 °F 10.4 °F 73% 30.15 in 10.0 mi North 9.2 mph - N/A   Scattered Clouds
2:15 AM 17.6 °F 7.3 °F 10.4 °F 73% 30.16 in 10.0 mi North 8.1 mph - N/A   Mostly Cloudy
2:35 AM 15.8 °F 8.6 °F 8.6 °F 73% 30.16 in 10.0 mi North 4.6 mph - N/A   Mostly Cloudy
2:55 AM 15.8 °F 7.2 °F 10.4 °F 79% 30.16 in 10.0 mi North 5.8 mph - N/A   Overcast
3:15 AM 15.8 °F 7.2 °F 8.6 °F 73% 30.15 in 10.0 mi North 5.8 mph - N/A   Overcast
3:35 AM 15.8 °F 5.1 °F 10.4 °F 79% 30.14 in 10.0 mi North 8.1 mph - N/A   Overcast
3:55 AM 15.8 °F 6.1 °F 10.4 °F 79% 30.15 in 10.0 mi North 6.9 mph - N/A   Overcast
4:15 AM 15.8 °F 8.6 °F 10.4 °F 79% 30.14 in 10.0 mi NNE 4.6 mph - N/A   Overcast
4:35 AM 15.8 °F 6.1 °F 10.4 °F 79% 30.14 in 10.0 mi North 6.9 mph - N/A   Overcast
4:55 AM 15.8 °F 8.6 °F 8.6 °F 73% 30.14 in 10.0 mi North 4.6 mph - N/A   Overcast
5:15 AM 15.8 °F 7.2 °F 10.4 °F 79% 30.12 in 10.0 mi North 5.8 mph - N/A   Overcast
5:35 AM 15.8 °F 5.1 °F 10.4 °F 79% 30.12 in 10.0 mi North 8.1 mph - N/A   Overcast
5:55 AM 15.8 °F 6.1 °F 10.4 °F 79% 30.12 in 10.0 mi ENE 6.9 mph - N/A   Scattered Clouds
6:15 AM 15.8 °F 8.6 °F 8.6 °F 73% 30.12 in 10.0 mi ENE 4.6 mph - N/A   Clear
6:35 AM 15.8 °F 8.6 °F 8.6 °F 73% 30.13 in 10.0 mi ENE 4.6 mph - N/A   Partly Cloudy
6:55 AM 15.8 °F 7.2 °F 8.6 °F 73% 30.11 in 10.0 mi ENE 5.8 mph - N/A   Mostly Cloudy
7:35 AM 15.8 °F 10.2 °F 10.4 °F 79% 30.10 in 10.0 mi ENE 3.5 mph - N/A   Scattered Clouds
7:55 AM 15.8 °F 7.2 °F 8.6 °F 73% 30.10 in 8.0 mi East 5.8 mph - N/A   Mostly Cloudy
8:15 AM 15.8 °F 7.2 °F 8.6 °F 73% 30.10 in 1.2 mi NE 5.8 mph - N/A   Overcast
8:35 AM 15.8 °F 8.6 °F 10.4 °F 79% 30.11 in 5.0 mi NE 4.6 mph - N/A   Mostly Cloudy
8:55 AM 15.8 °F 6.1 °F 8.6 °F 73% 30.10 in 10.0 mi ENE 6.9 mph - N/A   Scattered Clouds
9:15 AM 15.8 °F 8.6 °F 8.6 °F 73% 30.11 in 10.0 mi NE 4.6 mph - N/A   Mostly Cloudy
9:55 AM 15.8 °F 6.1 °F 10.4 °F 79% 30.11 in 10.0 mi ENE 6.9 mph - N/A   Overcast
10:15 AM 15.8 °F 5.1 °F 10.4 °F 79% 30.11 in 10.0 mi NE 8.1 mph - N/A   Overcast
10:35 AM 15.8 °F 3.4 °F 10.4 °F 79% 30.10 in 10.0 mi NE 10.4 mph - N/A   Overcast
10:55 AM 17.6 °F 5.7 °F 10.4 °F 73% 30.10 in 10.0 mi NE 10.4 mph - N/A   Overcast
11:15 AM 15.8 °F 3.4 °F 10.4 °F 79% 30.11 in 10.0 mi ENE 10.4 mph - N/A   Overcast
11:35 AM 15.8 °F 3.4 °F 10.4 °F 79% 30.11 in 10.0 mi ENE 10.4 mph - N/A   Overcast
11:55 AM 17.6 °F 5.7 °F 12.2 °F 79% 30.11 in 10.0 mi ENE 10.4 mph - N/A   Overcast
12:35 PM 19.4 °F 7.9 °F 10.4 °F 68% 30.10 in 10.0 mi ENE 10.4 mph - N/A   Overcast
12:55 PM 19.4 °F 7.9 °F 12.2 °F 74% 30.10 in 10.0 mi ENE 10.4 mph 18.4 mph N/A   Mostly Cloudy
1:15 PM 19.4 °F 7.9 °F 10.4 °F 68% 30.09 in 9.0 mi ENE 10.4 mph 17.3 mph N/A   Scattered Clouds
1:35 PM 19.4 °F 6.6 °F 12.2 °F 74% 30.07 in 6.0 mi NE 12.7 mph - N/A   Overcast
1:55 PM 19.4 °F 6.0 °F 10.4 °F 68% 30.07 in 5.0 mi NE 13.8 mph 18.4 mph N/A   Mostly Cloudy
2:15 PM 19.4 °F 5.5 °F 10.4 °F 68% 30.07 in 4.0 mi NE 15.0 mph - N/A   Mostly Cloudy
2:35 PM 17.6 °F 2.7 °F 10.4 °F 73% 30.06 in 1.5 mi NE 16.1 mph - N/A   Overcast
2:55 PM 17.6 °F 3.7 °F 12.2 °F 79% 30.05 in 1.8 mi NE 13.8 mph - N/A   Overcast
3:15 PM 17.6 °F 4.3 °F 12.2 °F 79% 30.05 in 6.0 mi NE 12.7 mph - N/A   Overcast
3:35 PM 17.6 °F 3.2 °F 10.4 °F 73% 30.05 in 4.0 mi NE 15.0 mph - N/A   Overcast
3:55 PM 17.6 °F 3.2 °F 12.2 °F 79% 30.05 in 4.0 mi NE 15.0 mph - N/A   Overcast
4:15 PM 17.6 °F 4.3 °F 12.2 °F 79% 30.05 in 3.0 mi NE 12.7 mph - N/A   Overcast
4:35 PM 17.6 °F 2.7 °F 12.2 °F 79% 30.04 in 1.8 mi NE 16.1 mph - N/A   Overcast
4:55 PM 17.6 °F 3.7 °F 12.2 °F 79% 30.04 in 1.0 mi ENE 13.8 mph - N/A   Overcast
5:35 PM 17.6 °F 3.2 °F 12.2 °F 79% 30.02 in 2.5 mi NE 15.0 mph - N/A   Overcast
5:55 PM 17.6 °F 2.2 °F 12.2 °F 79% 30.01 in 2.0 mi NE 17.3 mph - N/A   Overcast
6:16 PM 17.6 °F 3.2 °F 14.0 °F 86% 30.00 in 1.2 mi ENE 15.0 mph - N/A   Overcast
6:35 PM 17.6 °F 4.3 °F 12.2 °F 79% 30.00 in 2.0 mi ENE 12.7 mph - N/A   Overcast
6:55 PM 17.6 °F 3.2 °F 14.0 °F 86% 29.99 in 3.0 mi ENE 15.0 mph - N/A   Overcast
7:15 PM 17.6 °F 5.0 °F 12.2 °F 79% 29.99 in 10.0 mi ENE 11.5 mph - N/A   Overcast
7:35 PM 17.6 °F 4.3 °F 14.0 °F 86% 29.98 in 10.0 mi NE 12.7 mph - N/A   Overcast
7:55 PM 17.6 °F 7.3 °F 15.8 °F 93% 29.99 in 10.0 mi NE 8.1 mph - N/A   Overcast
8:35 PM 19.4 °F 6.0 °F 15.8 °F 86% 29.97 in 10.0 mi East 13.8 mph - N/A   Overcast
8:55 PM 19.4 °F 6.0 °F 15.8 °F 86% 29.96 in 10.0 mi East 13.8 mph - N/A   Overcast
9:15 PM 19.4 °F 7.9 °F 14.0 °F 80% 29.96 in 10.0 mi East 10.4 mph - N/A   Overcast
9:35 PM 19.4 °F 7.2 °F 12.2 °F 74% 29.96 in 10.0 mi East 11.5 mph - N/A   Overcast
9:55 PM 19.4 °F 7.9 °F 12.2 °F 74% 29.95 in 10.0 mi ESE 10.4 mph - N/A   Overcast
10:15 PM 19.4 °F 7.2 °F 14.0 °F 80% 29.94 in 10.0 mi East 11.5 mph - N/A   Overcast
10:35 PM 19.4 °F 7.9 °F 14.0 °F 80% 29.91 in 10.0 mi East 10.4 mph - N/A   Overcast
10:55 PM 19.4 °F 8.6 °F 14.0 °F 80% 29.90 in 10.0 mi East 9.2 mph - N/A   Overcast
11:15 PM 19.4 °F 8.6 °F 14.0 °F 80% 29.89 in 10.0 mi ESE 9.2 mph - N/A   Overcast
11:35 PM 19.4 °F 8.6 °F 12.2 °F 74% 29.86 in 8.0 mi ESE 9.2 mph - N/A   Mostly Cloudy
11:55 PM 17.6 °F 9.3 °F 12.2 °F 79% 29.86 in 7.0 mi East 5.8 mph - N/A   Scattered Clouds